This demonstration page uses our WeatherBlox Daily Observations layout. Learn more.

Left ArrowRight Arrow

39.12711, -84.51439

Hourly Observations for August 10, 2022

Temp ( °F °C ) Dew Point ( °F °C ) Humidity (%) Winds ( mph kmh ) Pressure ( in mb ) Visibility ( mi km ) Precip ( " mm )
12:53 am 00:53 Partly Cloudy with Light Rain 73 22.8 72 22.2 96 96 Calm 30.06 1018 9 14 0.01 0.25
1:08 am 01:08 Mostly Cloudy with Light Rain 73 22.8 72 22.2 96 96 Calm 30.06 1018 8 13 0.01 0.13
1:32 am 01:32 Partly Cloudy with Mist and Fog 72 22.2 72 22.2 100 100 WNW 3 6 30.06 1018 6 10 0.01 0.13
1:53 am 01:53 Partly Cloudy with Mist and Fog 73 22.8 72 22.2 96 96 ENE 3 6 30.07 1018 6 10 0.01 0.13
2:30 am 02:30 Mostly Clear with Mist and Fog 72 22.2 72 22.2 100 100 Calm 30.06 1018 6 10 0.00 0.00
2:53 am 02:53 Mostly Clear 73 22.8 72 22.2 96 96 Calm 30.06 1018 7 11 0.00 0.00
3:17 am 03:17 Mostly Cloudy with Mist and Fog 72 22.2 72 22.2 100 100 S 3 6 30.07 1018 5 8 0.00 0.00
3:43 am 03:43 Cloudy 73 22.8 72 22.2 96 96 Calm 30.07 1018 7 11 0.00 0.00
3:53 am 03:53 Cloudy 73 22.8 72 22.2 96 96 Calm 30.07 1018 8 13 0.00 0.00
4:31 am 04:31 Mostly Cloudy with Mist and Fog 73 22.8 72 22.2 96 96 Calm 30.07 1018 6 10 0.00 0.00
4:53 am 04:53 Partly Cloudy with Mist and Fog 72 22.2 72 22.2 100 100 Calm 30.08 1019 5 8 0.00 0.00
5:04 am 05:04 Mostly Cloudy with Mist and Fog 71 21.7 71 21.7 100 100 Calm 30.07 1018 3 4 0.00 0.00
5:16 am 05:16 Cloudy with Mist and Fog 71 21.7 71 21.7 100 100 Calm 30.07 1018 4 6 0.00 0.00
5:53 am 05:53 Cloudy with Mist and Fog 72 22.2 72 22.2 100 100 Calm 30.08 1019 4 6 0.00 0.00
6:00 am 06:00 Cloudy with Mist and Fog 72 22.2 72 22.2 100 100 Calm 30.07 1018 4 6 0.00 0.00
6:41 am 06:41 Cloudy with Mist and Fog 73 22.8 72 22.2 96 96 Calm 30.08 1019 6 10 0.00 0.00
6:53 am 06:53 Cloudy 73 22.8 72 22.2 96 96 Calm 30.09 1019 7 11 0.00 0.00
7:53 am 07:53 Cloudy with Mist and Fog 74 23.3 73 22.8 97 97 Calm 30.10 1019 5 8 0.00 0.00
8:00 am 08:00 Cloudy with Mist and Fog 74 23.3 73 22.8 97 97 Calm 30.10 1019 5 8 0.00 0.00
8:53 am 08:53 Cloudy with Mist and Fog 75 23.9 73 22.8 94 94 W 6 9 30.11 1020 5 8 0.00 0.00
9:42 am 09:42 Mostly Cloudy with Mist and Fog 76 24.4 72 22.2 88 88 WSW 5 7 30.11 1020 6 10 0.00 0.00
9:53 am 09:53 Mostly Cloudy with Mist and Fog 77 25 73 22.8 88 88 WSW 6 9 30.12 1020 6 10 0.00 0.00
10:53 am 10:53 Cloudy with Haze 78 25.6 73 22.8 85 85 VRB 5 7 30.13 1020 6 10 0.00 0.00
11:00 am 11:00 Mostly Cloudy with Haze 79 26.1 73 22.8 82 82 SW 6 9 30.12 1020 5 8 0.00 0.00
11:53 am 11:53 Cloudy 79 26.1 72 22.2 79 79 WSW 6 9 30.13 1020 7 11 0.00 0.00
12:53 pm 12:53 Cloudy 80 26.7 70 21.1 71 71 WSW 3 6 30.11 1020 9 14 0.00 0.00
1:10 pm 13:10 Cloudy 79 26.1 70 21.1 74 74 NNW 6 9 30.11 1020 10 16 0.00 0.00
1:39 pm 13:39 Mostly Cloudy 83 28.3 71 21.7 67 67 VRB 5 7 30.08 1019 10 16 0.00 0.00
1:53 pm 13:53 Mostly Cloudy 81 27.2 70 21.1 69 69 Calm 30.10 1019 10 16 0.00 0.00
2:53 pm 14:53 Mostly Cloudy 83 28.3 71 21.7 67 67 undefined N/A 30.08 1019 10 16 0.01 0.13
3:53 pm 15:53 Mostly Cloudy 83 28.3 70 21.1 65 65 WNW 7 11 30.06 1018 10 16 0.00 0.00
4:53 pm 16:53 Mostly Cloudy 82 27.8 69 20.6 65 65 NW 7 11 30.05 1018 10 16 0.00 0.00
5:53 pm 17:53 Mostly Cloudy 82 27.8 70 21.1 67 67 NNW 7 11 30.06 1018 10 16 0.00 0.00
6:53 pm 18:53 Mostly Cloudy 81 27.2 68 20 65 65 NW 9 15 30.05 1018 10 16 0.00 0.00
7:53 pm 19:53 Mostly Cloudy 80 26.7 68 20 67 67 NNW 7 11 30.06 1018 10 16 0.00 0.00
8:53 pm 20:53 Clear 78 25.6 66 18.9 67 67 NW 5 7 30.06 1018 10 16 0.00 0.00
9:53 pm 21:53 Partly Cloudy 71 21.7 69 20.6 93 93 Calm 30.09 1019 10 16 0.00 0.00
10:53 pm 22:53 Clear 69 20.6 68 20 96 96 Calm 30.09 1019 8 13 0.00 0.00
11:53 pm 23:53 Clear with Mist and Fog 68 20 67 19.4 96 96 Calm 30.09 1019 5 8 0.00 0.00

Powered by AerisWeather